| time (UTC) | temp F | wind direction | speed MPH | gust MPH | rain 1hr in | rain 24hr in | rain mn in | humidity % | barometer mb |
| 20260902125517 | 67 | 113 | 9.0 | 11.0 | 0.00 | 0.32 | 0.00 | 86 | 1019.8 |
| 20260902125016 | 67 | 90 | 9.0 | 11.0 | 0.00 | 0.32 | 0.00 | 86 | 1020.0 |
| 20260902124517 | 67 | 90 | 9.0 | 11.0 | 0.00 | 0.32 | 0.00 | 87 | 1019.9 |
| 20260902124016 | 67 | 113 | 9.0 | 11.0 | 0.00 | 0.32 | 0.00 | 87 | 1019.9 |
| 20260902123517 | 67 | 113 | 9.0 | 11.0 | 0.00 | 0.32 | 0.00 | 87 | 1019.9 |
| 20260902123016 | 67 | 90 | 9.0 | 12.0 | 0.00 | 0.32 | 0.00 | 87 | 1019.9 |
| 20260902122538 | 67 | 90 | 9.0 | 11.0 | 0.00 | 0.32 | 0.00 | 87 | 1020.1 |
| 20260902122016 | 67 | 90 | 9.0 | 12.0 | 0.00 | 0.32 | 0.00 | 87 | 1020.0 |
| 20260902121517 | 67 | 90 | 10.0 | 12.0 | 0.00 | 0.32 | 0.00 | 87 | 1020.0 |
| 20260902121016 | 67 | 90 | 11.0 | 13.0 | 0.00 | 0.32 | 0.00 | 87 | 1020.1 |
| 20260902120516 | 66 | 90 | 11.0 | 15.0 | 0.00 | 0.32 | 0.00 | 87 | 1020.0 |
| 20260902120016 | 67 | 90 | 11.0 | 14.0 | 0.00 | 0.32 | 0.00 | 87 | 1020.1 |
| 20260902115537 | 66 | 90 | 12.0 | 15.0 | 0.00 | 0.32 | 0.00 | 87 | 1020.1 |
| 20260902115036 | 67 | 90 | 13.0 | 16.0 | 0.00 | 0.32 | 0.00 | 87 | 1020.0 |
| 20260902114517 | 67 | 90 | 15.0 | 17.0 | 0.00 | 0.32 | 0.00 | 86 | 1019.8 |
| 20260902114016 | 67 | 90 | 15.0 | 19.0 | 0.00 | 0.32 | 0.00 | 86 | 1019.7 |
| 20260902113536 | 67 | 90 | 14.0 | 17.0 | 0.00 | 0.32 | 0.00 | 86 | 1019.7 |
| 20260902113017 | 67 | 90 | 15.0 | 17.0 | 0.00 | 0.32 | 0.00 | 86 | 1019.7 |
| 20260902112516 | 67 | 90 | 15.0 | 19.0 | 0.00 | 0.32 | 0.00 | 86 | 1019.6 |
| 20260902112017 | 67 | 90 | 16.0 | 19.0 | 0.00 | 0.32 | 0.00 | 86 | 1019.5 |
| 20260902111516 | 67 | 90 | 16.0 | 19.0 | 0.00 | 0.32 | 0.00 | 86 | 1019.5 |
| 20260902111016 | 67 | 90 | 16.0 | 20.0 | 0.00 | 0.32 | 0.00 | 86 | 1019.5 |
| 20260902110516 | 67 | 90 | 16.0 | 19.0 | 0.00 | 0.32 | 0.00 | 86 | 1019.5 |
| 20260902110016 | 67 | 90 | 16.0 | 19.0 | 0.00 | 0.32 | 0.00 | 86 | 1019.5 |
| 20260902105516 | 66 | 90 | 16.0 | 19.0 | 0.00 | 0.32 | 0.00 | 86 | 1019.3 |
| 20260902105016 | 66 | 90 | 16.0 | 19.0 | 0.00 | 0.32 | 0.00 | 86 | 1019.2 |
| 20260902104517 | 66 | 90 | 16.0 | 18.0 | 0.00 | 0.32 | 0.00 | 85 | 1019.3 |
| 20260902104016 | 66 | 90 | 16.0 | 20.0 | 0.00 | 0.32 | 0.00 | 85 | 1019.4 |
| 20260902103517 | 66 | 90 | 17.0 | 21.0 | 0.00 | 0.32 | 0.00 | 85 | 1019.3 |
| 20260902103016 | 66 | 90 | 18.0 | 21.0 | 0.00 | 0.32 | 0.00 | 85 | 1019.2 |
| 20260902102517 | 66 | 90 | 18.0 | 21.0 | 0.00 | 0.32 | 0.00 | 84 | 1019.1 |
| 20260902102017 | 66 | 90 | 18.0 | 21.0 | 0.00 | 0.32 | 0.00 | 84 | 1019.0 |
| 20260902101516 | 67 | 90 | 18.0 | 20.0 | 0.00 | 0.32 | 0.00 | 84 | 1018.9 |
| 20260902101016 | 67 | 90 | 17.0 | 21.0 | 0.00 | 0.32 | 0.00 | 83 | 1019.0 |
| 20260902100557 | 67 | 90 | 16.0 | 19.0 | 0.00 | 0.32 | 0.00 | 83 | 1019.0 |
| 20260902100016 | 67 | 90 | 16.0 | 19.0 | 0.00 | 0.32 | 0.00 | 83 | 1019.0 |
| 20260902095517 | 67 | 68 | 15.0 | 18.0 | 0.00 | 0.32 | 0.00 | 82 | 1019.0 |
| 20260902095036 | 67 | 90 | 14.0 | 17.0 | 0.00 | 0.32 | 0.00 | 83 | 1019.0 |
| 20260902094536 | 66 | 90 | 15.0 | 18.0 | 0.00 | 0.32 | 0.00 | 82 | 1019.0 |
| 20260902094016 | 66 | 68 | 14.0 | 16.0 | 0.00 | 0.32 | 0.00 | 83 | 1018.9 |
| 20260902093516 | 66 | 68 | 14.0 | 16.0 | 0.00 | 0.32 | 0.00 | 83 | 1018.9 |
| 20260902093016 | 66 | 90 | 14.0 | 17.0 | 0.00 | 0.32 | 0.00 | 83 | 1018.7 |
| 20260902092517 | 67 | 90 | 14.0 | 16.0 | 0.00 | 0.32 | 0.00 | 83 | 1018.7 |
| 20260902092036 | 67 | 90 | 15.0 | 17.0 | 0.00 | 0.32 | 0.00 | 83 | 1018.7 |
| 20260902091516 | 66 | 90 | 14.0 | 18.0 | 0.00 | 0.32 | 0.00 | 82 | 1018.6 |
| 20260902091016 | 66 | 90 | 15.0 | 18.0 | 0.00 | 0.32 | 0.00 | 82 | 1018.5 |
| 20260902090516 | 66 | 90 | 14.0 | 17.0 | 0.00 | 0.32 | 0.00 | 82 | 1018.6 |
| 20260902090016 | 66 | 90 | 13.0 | 15.0 | 0.00 | 0.32 | 0.00 | 83 | 1018.6 |
| 20260902085516 | 66 | 90 | 12.0 | 15.0 | 0.00 | 0.32 | 0.00 | 84 | 1018.8 |
| 20260902085037 | 66 | 90 | 11.0 | 14.0 | 0.00 | 0.32 | 0.00 | 84 | 1018.8 |
| 20260902084536 | 66 | 90 | 11.0 | 13.0 | 0.00 | 0.32 | 0.00 | 84 | 1018.8 |
| 20260902084016 | 66 | 68 | 10.0 | 11.0 | 0.00 | 0.32 | 0.00 | 85 | 1018.9 |
| 20260902083516 | 66 | 68 | 9.0 | 11.0 | 0.00 | 0.32 | 0.00 | 85 | 1018.9 |
| 20260902083016 | 66 | 68 | 10.0 | 12.0 | 0.00 | 0.32 | 0.00 | 85 | 1018.9 |
| 20260902082516 | 66 | 68 | 10.0 | 11.0 | 0.00 | 0.32 | 0.00 | 85 | 1018.9 |
| 20260902082016 | 66 | 68 | 10.0 | 12.0 | 0.00 | 0.32 | 0.00 | 85 | 1018.9 |
| 20260902081516 | 66 | 68 | 9.0 | 11.0 | 0.00 | 0.32 | 0.00 | 85 | 1018.9 |
| 20260902081016 | 66 | 68 | 10.0 | 11.0 | 0.00 | 0.32 | 0.00 | 86 | 1018.9 |
| 20260902080516 | 66 | 68 | 8.0 | 10.0 | 0.00 | 0.32 | 0.00 | 86 | 1018.9 |
| 20260902080016 | 66 | 68 | 8.0 | 9.0 | 0.00 | 0.32 | 0.00 | 86 | 1018.9 |
| 20260902075516 | 66 | 68 | 7.0 | 9.0 | 0.00 | 0.32 | 0.00 | 86 | 1018.9 |
| 20260902075015 | 66 | 68 | 6.0 | 8.0 | 0.00 | 0.32 | 0.00 | 86 | 1018.8 |
| 20260902074517 | 65 | 45 | 4.0 | 5.0 | 0.00 | 0.32 | 0.00 | 86 | 1018.7 |
| 20260902074016 | 65 | 23 | 5.0 | 6.0 | 0.00 | 0.32 | 0.00 | 86 | 1018.7 |
| 20260902073516 | 65 | 23 | 5.0 | 6.0 | 0.00 | 0.32 | 0.00 | 86 | 1018.6 |
| 20260902073016 | 65 | 23 | 5.0 | 6.0 | 0.00 | 0.32 | 0.00 | 85 | 1018.5 |
| 20260902072515 | 65 | 23 | 4.0 | 5.0 | 0.00 | 0.32 | 0.00 | 85 | 1018.4 |
| 20260902072016 | 65 | 338 | 2.0 | 4.0 | 0.00 | 0.32 | 0.00 | 85 | 1018.6 |
| 20260902071516 | 65 | 338 | 3.0 | 4.0 | 0.00 | 0.32 | 0.00 | 85 | 1018.6 |
| 20260902071016 | 65 | 338 | 2.0 | 4.0 | 0.00 | 0.32 | 0.00 | 85 | 1018.5 |
| 20260902070516 | 65 | 23 | 3.0 | 4.0 | 0.00 | 0.32 | 0.00 | 85 | 1018.6 |
| 20260902070036 | 65 | 23 | 4.0 | 6.0 | 0.00 | 0.32 | 0.00 | 85 | 1018.5 |
| 20260902065536 | 65 | 23 | 4.0 | 5.0 | 0.00 | 0.32 | 0.00 | 85 | 1018.5 |
| 20260902065057 | 65 | 338 | 3.0 | 5.0 | 0.00 | 0.32 | 0.00 | 85 | 1018.5 |
| 20260902064515 | 66 | 338 | 2.0 | 4.0 | 0.00 | 0.32 | 0.00 | 85 | 1018.6 |
| 20260902064015 | 66 | 338 | 2.0 | 3.0 | 0.00 | 0.32 | 0.00 | 84 | 1018.7 |
| 20260902063516 | 66 | 23 | 3.0 | 4.0 | 0.00 | 0.32 | 0.00 | 84 | 1018.7 |
| 20260902063036 | 66 | 23 | 4.0 | 4.0 | 0.00 | 0.32 | 0.00 | 84 | 1018.6 |
| 20260902062516 | 66 | 23 | 4.0 | 4.0 | 0.00 | 0.32 | 0.00 | 84 | 1018.6 |
| 20260902062036 | 66 | 23 | 4.0 | 5.0 | 0.00 | 0.32 | 0.00 | 84 | 1018.7 |
| 20260902061516 | 66 | 23 | 4.0 | 5.0 | 0.00 | 0.32 | 0.00 | 84 | 1018.7 |
| 20260902061016 | 66 | 45 | 4.0 | 5.0 | 0.00 | 0.32 | 0.00 | 83 | 1018.7 |
| 20260902060516 | 66 | 23 | 3.0 | 4.0 | 0.00 | 0.32 | 0.00 | 83 | 1018.7 |
| 20260902060016 | 66 | 23 | 2.0 | 3.0 | 0.00 | 0.32 | 0.00 | 83 | 1018.7 |
| 20260902055516 | 67 | 0 | 1.0 | 2.0 | 0.00 | 0.32 | 0.00 | 83 | 1018.7 |
| 20260902055016 | 67 | 225 | 1.0 | 3.0 | 0.00 | 0.32 | 0.00 | 83 | 1018.7 |
| 20260902054516 | 67 | 203 | 2.0 | 3.0 | 0.00 | 0.32 | 0.00 | 83 | 1018.6 |
| 20260902054016 | 67 | 180 | 1.0 | 2.0 | 0.00 | 0.32 | 0.00 | 83 | 1018.5 |
| 20260902053516 | 67 | 135 | 1.0 | 2.0 | 0.00 | 0.32 | 0.00 | 83 | 1018.4 |
| 20260902053016 | 67 | 135 | 2.0 | 4.0 | 0.00 | 0.32 | 0.00 | 83 | 1018.3 |
| 20260902052536 | 67 | 158 | 2.0 | 4.0 | 0.00 | 0.32 | 0.00 | 82 | 1018.2 |
| 20260902052016 | 67 | 135 | 2.0 | 4.0 | 0.00 | 0.32 | 0.00 | 82 | 1018.1 |
| 20260902051516 | 66 | 135 | 2.0 | 3.0 | 0.00 | 0.32 | 0.00 | 82 | 1018.0 |
| 20260902051016 | 66 | 135 | 2.0 | 3.0 | 0.00 | 0.32 | 0.00 | 82 | 1017.9 |
| 20260902050516 | 66 | 135 | 2.0 | 3.0 | 0.00 | 0.32 | 0.00 | 82 | 1017.9 |
| 20260902050036 | 66 | 113 | 2.0 | 3.0 | 0.00 | 0.32 | 0.00 | 82 | 1017.8 |
| 20260902045516 | 67 | 113 | 2.0 | 3.0 | 0.00 | 0.32 | 0.00 | 82 | 1017.9 |
| 20260902045015 | 67 | 135 | 2.0 | 4.0 | 0.00 | 0.32 | 0.00 | 82 | 1017.8 |
| 20260902044515 | 66 | 113 | 3.0 | 5.0 | 0.00 | 0.32 | 0.00 | 82 | 1017.8 |
| 20260902044016 | 66 | 113 | 3.0 | 6.0 | 0.00 | 0.32 | 0.00 | 82 | 1017.7 |
| 20260902043515 | 66 | 135 | 3.0 | 5.0 | 0.00 | 0.32 | 0.00 | 81 | 1017.6 |
| 20260902043016 | 66 | 135 | 3.0 | 4.0 | 0.00 | 0.32 | 0.00 | 81 | 1017.5 |
| 20260902042557 | 66 | 135 | 3.0 | 6.0 | 0.00 | 0.32 | 0.00 | 81 | 1017.5 |
| 20260902042016 | 66 | 135 | 3.0 | 5.0 | 0.00 | 0.32 | 0.00 | 81 | 1017.5 |
| 20260902041515 | 66 | 113 | 3.0 | 4.0 | 0.00 | 0.32 | 0.00 | 81 | 1017.5 |
| 20260902041015 | 66 | 135 | 3.0 | 4.0 | 0.00 | 0.32 | 0.00 | 81 | 1017.5 |
| 20260902040516 | 66 | 135 | 4.0 | 6.0 | 0.00 | 0.32 | 0.00 | 81 | 1017.2 |
| 20260902040016 | 66 | 158 | 3.0 | 5.0 | 0.00 | 0.32 | 0.32 | 80 | 1017.2 |
| 20260902035516 | 66 | 158 | 3.0 | 5.0 | 0.00 | 0.32 | 0.32 | 80 | 1017.2 |
| 20260902035016 | 66 | 158 | 3.0 | 5.0 | 0.00 | 0.32 | 0.32 | 79 | 1017.1 |
| 20260902034516 | 66 | 158 | 3.0 | 5.0 | 0.00 | 0.32 | 0.32 | 78 | 1017.2 |
| 20260902034016 | 66 | 158 | 2.0 | 4.0 | 0.00 | 0.32 | 0.32 | 78 | 1017.3 |
| 20260902033516 | 66 | 158 | 2.0 | 4.0 | 0.00 | 0.32 | 0.32 | 79 | 1017.3 |
| 20260902033016 | 66 | 180 | 3.0 | 4.0 | 0.00 | 0.32 | 0.32 | 79 | 1017.4 |
| 20260902032516 | 66 | 180 | 3.0 | 5.0 | 0.00 | 0.32 | 0.32 | 79 | 1017.2 |
| 20260902032016 | 66 | 158 | 3.0 | 6.0 | 0.00 | 0.32 | 0.32 | 80 | 1017.2 |
| 20260902031517 | 66 | 158 | 4.0 | 5.0 | 0.00 | 0.32 | 0.32 | 80 | 1017.2 |
| 20260902031036 | 66 | 158 | 3.0 | 5.0 | 0.00 | 0.32 | 0.32 | 81 | 1017.1 |
| 20260902030516 | 65 | 158 | 3.0 | 5.0 | 0.00 | 0.32 | 0.32 | 81 | 1017.1 |
| 20260902030016 | 65 | 135 | 2.0 | 4.0 | 0.00 | 0.32 | 0.32 | 82 | 1017.2 |
| 20260902025516 | 66 | 113 | 3.0 | 4.0 | 0.00 | 0.32 | 0.32 | 82 | 1017.1 |
| 20260902025036 | 66 | 113 | 2.0 | 3.0 | 0.00 | 0.32 | 0.32 | 83 | 1017.1 |
| 20260902024516 | 66 | 90 | 2.0 | 3.0 | 0.00 | 0.32 | 0.32 | 83 | 1017.2 |
| 20260902024016 | 66 | 68 | 2.0 | 3.0 | 0.00 | 0.32 | 0.32 | 83 | 1017.2 |
| 20260902023516 | 66 | 68 | 2.0 | 3.0 | 0.00 | 0.32 | 0.32 | 83 | 1017.2 |
| 20260902023015 | 66 | 45 | 1.0 | 2.0 | 0.00 | 0.32 | 0.32 | 82 | 1017.3 |
| 20260902022557 | 66 | 315 | 1.0 | 2.0 | 0.00 | 0.32 | 0.32 | 82 | 1017.3 |
| 20260902022016 | 66 | 293 | 1.0 | 2.0 | 0.00 | 0.32 | 0.32 | 82 | 1017.4 |
| 20260902021516 | 66 | 248 | 2.0 | 3.0 | 0.00 | 0.32 | 0.32 | 82 | 1017.4 |
| 20260902021016 | 66 | 248 | 3.0 | 3.0 | 0.00 | 0.32 | 0.32 | 82 | 1017.4 |
| 20260902020516 | 66 | 225 | 2.0 | 3.0 | 0.00 | 0.32 | 0.32 | 82 | 1017.3 |
| 20260902020036 | 66 | 225 | 2.0 | 3.0 | 0.00 | 0.32 | 0.32 | 82 | 1017.2 |
| 20260902015536 | 66 | 203 | 3.0 | 4.0 | 0.00 | 0.32 | 0.32 | 82 | 1017.2 |
| 20260902015037 | 66 | 203 | 3.0 | 4.0 | 0.00 | 0.32 | 0.32 | 82 | 1017.1 |
| 20260902014516 | 66 | 203 | 4.0 | 5.0 | 0.00 | 0.32 | 0.32 | 82 | 1017.2 |
| 20260902014015 | 66 | 203 | 4.0 | 5.0 | 0.00 | 0.32 | 0.32 | 81 | 1017.1 |
| 20260902013556 | 66 | 203 | 4.0 | 5.0 | 0.00 | 0.32 | 0.32 | 81 | 1017.1 |
| 20260902013016 | 66 | 203 | 4.0 | 5.0 | 0.00 | 0.32 | 0.32 | 81 | 1017.2 |
| 20260902012516 | 66 | 203 | 5.0 | 6.0 | 0.00 | 0.32 | 0.32 | 81 | 1017.2 |
| 20260902012016 | 66 | 203 | 5.0 | 6.0 | 0.00 | 0.32 | 0.32 | 81 | 1017.3 |
| 20260902011516 | 66 | 203 | 6.0 | 7.0 | 0.00 | 0.32 | 0.32 | 81 | 1017.2 |
| 20260902011016 | 66 | 203 | 7.0 | 8.0 | 0.00 | 0.32 | 0.32 | 81 | 1017.1 |
| 20260902010516 | 66 | 203 | 7.0 | 8.0 | 0.00 | 0.32 | 0.32 | 80 | 1017.1 |
| 20260902010016 | 66 | 203 | 7.0 | 8.0 | 0.00 | 0.32 | 0.32 | 80 | 1017.0 |
| 20260902005516 | 67 | 203 | 6.0 | 8.0 | 0.00 | 0.32 | 0.32 | 80 | 1017.0 |
| 20260902005016 | 67 | 180 | 7.0 | 9.0 | 0.00 | 0.32 | 0.32 | 79 | 1016.9 |
| 20260902004516 | 66 | 180 | 9.0 | 11.0 | 0.00 | 0.32 | 0.32 | 79 | 1016.8 |
| 20260902004015 | 66 | 180 | 10.0 | 11.0 | 0.00 | 0.32 | 0.32 | 79 | 1016.6 |
| 20260902003516 | 67 | 180 | 11.0 | 13.0 | 0.00 | 0.32 | 0.32 | 79 | 1016.5 |
| 20260902003016 | 67 | 180 | 11.0 | 13.0 | 0.00 | 0.32 | 0.32 | 80 | 1016.6 |
| 20260902002516 | 67 | 180 | 11.0 | 13.0 | 0.00 | 0.32 | 0.32 | 80 | 1016.6 |
| 20260902002016 | 67 | 180 | 10.0 | 12.0 | 0.00 | 0.32 | 0.32 | 80 | 1016.7 |
| 20260902001538 | 67 | 180 | 10.0 | 12.0 | 0.00 | 0.32 | 0.32 | 80 | 1016.7 |
| 20260902001016 | 67 | 180 | 9.0 | 12.0 | 0.00 | 0.32 | 0.32 | 80 | 1016.8 |
| 20260902000516 | 67 | 180 | 9.0 | 11.0 | 0.00 | 0.32 | 0.32 | 80 | 1016.8 |
| 20260902000016 | 67 | 180 | 9.0 | 11.0 | 0.00 | 0.32 | 0.32 | 80 | 1016.7 |
| 20260901235515 | 67 | 180 | 10.0 | 11.0 | 0.00 | 0.32 | 0.32 | 79 | 1016.7 |
| 20260901235016 | 67 | 180 | 10.0 | 12.0 | 0.00 | 0.32 | 0.32 | 79 | 1016.7 |
| 20260901234516 | 67 | 180 | 10.0 | 12.0 | 0.00 | 0.32 | 0.32 | 79 | 1016.7 |
| 20260901234056 | 67 | 180 | 10.0 | 12.0 | 0.00 | 0.32 | 0.32 | 79 | 1016.6 |
| 20260901233516 | 67 | 180 | 9.0 | 11.0 | 0.00 | 0.32 | 0.32 | 78 | 1016.5 |
| 20260901233015 | 67 | 180 | 8.0 | 11.0 | 0.00 | 0.32 | 0.32 | 78 | 1016.6 |
| 20260901232516 | 67 | 180 | 9.0 | 11.0 | 0.00 | 0.32 | 0.32 | 77 | 1016.5 |
| 20260901232037 | 67 | 180 | 9.0 | 10.0 | 0.00 | 0.32 | 0.32 | 78 | 1016.6 |
| 20260901231516 | 67 | 180 | 8.0 | 10.0 | 0.00 | 0.32 | 0.32 | 78 | 1016.6 |
| 20260901231016 | 67 | 180 | 8.0 | 9.0 | 0.00 | 0.32 | 0.32 | 78 | 1016.5 |
| 20260901230516 | 67 | 180 | 7.0 | 8.0 | 0.00 | 0.32 | 0.32 | 78 | 1016.5 |
| 20260901230015 | 67 | 180 | 7.0 | 9.0 | 0.00 | 0.32 | 0.32 | 78 | 1016.4 |
| 20260901225536 | 67 | 180 | 8.0 | 10.0 | 0.00 | 0.32 | 0.32 | 78 | 1016.4 |
| 20260901225035 | 67 | 203 | 9.0 | 10.0 | 0.00 | 0.32 | 0.32 | 79 | 1016.4 |
| 20260901224515 | 67 | 203 | 9.0 | 10.0 | 0.00 | 0.32 | 0.32 | 79 | 1016.4 |
| 20260901224036 | 67 | 203 | 8.0 | 9.0 | 0.00 | 0.32 | 0.32 | 79 | 1016.4 |
| 20260901223515 | 67 | 203 | 9.0 | 10.0 | 0.00 | 0.32 | 0.32 | 78 | 1016.5 |
| 20260901223015 | 67 | 203 | 8.0 | 9.0 | 0.00 | 0.32 | 0.32 | 79 | 1016.5 |
| 20260901222516 | 67 | 180 | 8.0 | 10.0 | 0.00 | 0.32 | 0.32 | 78 | 1016.4 |
| 20260901222015 | 67 | 180 | 8.0 | 10.0 | 0.00 | 0.32 | 0.32 | 79 | 1016.3 |
| 20260901221516 | 67 | 180 | 9.0 | 11.0 | 0.00 | 0.32 | 0.32 | 79 | 1016.2 |
| 20260901221015 | 67 | 180 | 10.0 | 12.0 | 0.00 | 0.32 | 0.32 | 79 | 1016.3 |
| 20260901220515 | 67 | 180 | 10.0 | 12.0 | 0.00 | 0.32 | 0.32 | 79 | 1016.2 |
| 20260901220015 | 67 | 180 | 10.0 | 11.0 | 0.00 | 0.32 | 0.32 | 79 | 1016.3 |
| 20260901215515 | 67 | 180 | 9.0 | 11.0 | 0.00 | 0.32 | 0.32 | 79 | 1016.5 |
| 20260901215016 | 67 | 180 | 9.0 | 10.0 | 0.00 | 0.32 | 0.32 | 78 | 1016.5 |
| 20260901214515 | 67 | 180 | 8.0 | 10.0 | 0.00 | 0.32 | 0.32 | 77 | 1016.3 |
| 20260901214016 | 67 | 180 | 8.0 | 9.0 | 0.00 | 0.32 | 0.32 | 76 | 1016.4 |
| 20260901213515 | 67 | 180 | 8.0 | 9.0 | 0.00 | 0.32 | 0.32 | 76 | 1016.4 |
| 20260901213037 | 67 | 203 | 7.0 | 9.0 | 0.00 | 0.32 | 0.32 | 75 | 1016.3 |
| 20260901212535 | 67 | 203 | 7.0 | 9.0 | 0.00 | 0.32 | 0.32 | 75 | 1016.3 |
| 20260901212015 | 67 | 180 | 9.0 | 11.0 | 0.00 | 0.32 | 0.32 | 76 | 1016.3 |
| 20260901211535 | 67 | 180 | 10.0 | 11.0 | 0.00 | 0.32 | 0.32 | 77 | 1016.3 |
| 20260901211016 | 67 | 180 | 10.0 | 12.0 | 0.00 | 0.32 | 0.32 | 77 | 1016.2 |
| 20260901210515 | 67 | 203 | 10.0 | 12.0 | 0.00 | 0.32 | 0.32 | 77 | 1016.3 |
| 20260901210016 | 67 | 180 | 11.0 | 13.0 | 0.00 | 0.32 | 0.32 | 77 | 1016.2 |
| 20260901205518 | 67 | 180 | 13.0 | 15.0 | 0.00 | 0.32 | 0.32 | 76 | 1016.1 |
| 20260901205018 | 67 | 180 | 11.0 | 14.0 | 0.00 | 0.32 | 0.32 | 76 | 1015.9 |
| 20260901204517 | 67 | 180 | 10.0 | 12.0 | 0.00 | 0.32 | 0.32 | 79 | 1016.0 |
| 20260901204017 | 67 | 180 | 10.0 | 12.0 | 0.00 | 0.32 | 0.32 | 79 | 1015.9 |
| 20260901203518 | 67 | 180 | 10.0 | 12.0 | 0.00 | 0.32 | 0.32 | 81 | 1015.9 |
| 20260901203038 | 67 | 180 | 10.0 | 13.0 | 0.00 | 0.32 | 0.32 | 80 | 1015.9 |
| 20260901202517 | 67 | 180 | 10.0 | 13.0 | 0.00 | 0.32 | 0.32 | 79 | 1015.9 |
| 20260901202017 | 67 | 180 | 9.0 | 11.0 | 0.00 | 0.32 | 0.32 | 78 | 1015.9 |
| 20260901201518 | 67 | 180 | 9.0 | 11.0 | 0.00 | 0.32 | 0.32 | 76 | 1015.9 |
| 20260901201038 | 67 | 180 | 9.0 | 11.0 | 0.00 | 0.32 | 0.32 | 78 | 1015.9 |
| 20260901200517 | 67 | 180 | 9.0 | 11.0 | 0.00 | 0.32 | 0.32 | 81 | 1015.9 |
| 20260901200017 | 67 | 180 | 11.0 | 14.0 | 0.00 | 0.32 | 0.32 | 81 | 1016.0 |
| 20260901195517 | 67 | 180 | 11.0 | 14.0 | 0.00 | 0.32 | 0.32 | 82 | 1015.9 |
| 20260901195017 | 67 | 180 | 10.0 | 12.0 | 0.00 | 0.32 | 0.32 | 81 | 1015.9 |
| 20260901194518 | 67 | 180 | 9.0 | 12.0 | 0.00 | 0.32 | 0.32 | 81 | 1016.0 |
| 20260901194037 | 67 | 180 | 9.0 | 11.0 | 0.00 | 0.32 | 0.32 | 81 | 1016.1 |
| 20260901193517 | 67 | 180 | 10.0 | 11.0 | 0.00 | 0.32 | 0.32 | 83 | 1016.0 |
| 20260901193018 | 67 | 180 | 10.0 | 12.0 | 0.00 | 0.32 | 0.32 | 84 | 1016.0 |
| 20260901192518 | 67 | 180 | 9.0 | 11.0 | 0.00 | 0.32 | 0.32 | 86 | 1016.0 |
| 20260901192017 | 67 | 180 | 10.0 | 12.0 | 0.00 | 0.32 | 0.32 | 87 | 1016.0 |
| 20260901191516 | 68 | 180 | 10.0 | 12.0 | 0.00 | 0.32 | 0.32 | 87 | 1015.8 |
| 20260901191017 | 68 | 158 | 5.0 | 10.0 | 0.00 | 0.32 | 0.32 | 87 | 1015.8 |
| 20260901190517 | 68 | 158 | 4.0 | 6.0 | 0.00 | 0.32 | 0.32 | 88 | 1015.9 |
| 20260901190038 | 68 | 158 | 4.0 | 7.0 | 0.01 | 0.32 | 0.32 | 88 | 1015.9 |
| 20260901185518 | 68 | 135 | 4.0 | 7.0 | 0.01 | 0.32 | 0.32 | 88 | 1015.9 |
| 20260901185017 | 68 | 113 | 4.0 | 7.0 | 0.01 | 0.32 | 0.32 | 88 | 1015.9 |
| 20260901184517 | 68 | 113 | 4.0 | 6.0 | 0.01 | 0.32 | 0.32 | 88 | 1015.9 |
| 20260901184018 | 68 | 113 | 4.0 | 6.0 | 0.01 | 0.32 | 0.32 | 88 | 1015.8 |
| 20260901183517 | 68 | 113 | 5.0 | 7.0 | 0.01 | 0.32 | 0.32 | 88 | 1015.8 |
| 20260901183017 | 68 | 113 | 5.0 | 7.0 | 0.01 | 0.32 | 0.32 | 89 | 1015.8 |
| 20260901182517 | 67 | 113 | 5.0 | 8.0 | 0.01 | 0.32 | 0.32 | 88 | 1015.7 |
| 20260901182018 | 67 | 113 | 6.0 | 8.0 | 0.01 | 0.32 | 0.32 | 88 | 1015.5 |
| 20260901181517 | 67 | 113 | 6.0 | 8.0 | 0.01 | 0.32 | 0.32 | 88 | 1015.6 |
| 20260901181017 | 67 | 113 | 6.0 | 8.0 | 0.01 | 0.32 | 0.32 | 89 | 1015.7 |
| 20260901180517 | 67 | 90 | 6.0 | 8.0 | 0.01 | 0.32 | 0.32 | 88 | 1015.9 |
| 20260901180017 | 67 | 113 | 6.0 | 8.0 | 0.00 | 0.31 | 0.31 | 89 | 1015.8 |
| 20260901175538 | 67 | 113 | 6.0 | 7.0 | 0.00 | 0.31 | 0.31 | 88 | 1015.7 |
| 20260901175017 | 66 | 90 | 6.0 | 8.0 | 0.00 | 0.31 | 0.31 | 88 | 1015.8 |
| 20260901174517 | 66 | 90 | 6.0 | 8.0 | 0.00 | 0.31 | 0.31 | 88 | 1015.8 |
| 20260901174018 | 66 | 90 | 6.0 | 8.0 | 0.00 | 0.31 | 0.31 | 89 | 1015.9 |
| 20260901173518 | 66 | 90 | 5.0 | 7.0 | 0.00 | 0.31 | 0.31 | 88 | 1015.9 |
| 20260901173017 | 66 | 90 | 4.0 | 6.0 | 0.00 | 0.31 | 0.31 | 89 | 1015.9 |
| 20260901172517 | 66 | 90 | 4.0 | 7.0 | 0.00 | 0.31 | 0.31 | 89 | 1015.9 |
| 20260901172017 | 66 | 90 | 5.0 | 7.0 | 0.00 | 0.31 | 0.31 | 89 | 1015.9 |
| 20260901171517 | 66 | 68 | 6.0 | 8.0 | 0.00 | 0.31 | 0.31 | 89 | 1015.9 |
| 20260901171018 | 66 | 68 | 6.0 | 8.0 | 0.00 | 0.31 | 0.31 | 89 | 1015.9 |
| 20260901170517 | 66 | 90 | 5.0 | 7.0 | 0.00 | 0.31 | 0.31 | 89 | 1016.0 |
| 20260901170017 | 66 | 68 | 5.0 | 7.0 | 0.00 | 0.31 | 0.31 | 89 | 1016.0 |
| 20260901165537 | 66 | 68 | 4.0 | 6.0 | 0.00 | 0.31 | 0.31 | 89 | 1016.0 |
| 20260901165017 | 66 | 68 | 4.0 | 5.0 | 0.00 | 0.31 | 0.31 | 89 | 1016.0 |
| 20260901164517 | 66 | 68 | 4.0 | 5.0 | 0.00 | 0.31 | 0.31 | 89 | 1016.0 |
| 20260901164017 | 66 | 68 | 4.0 | 5.0 | 0.00 | 0.31 | 0.31 | 89 | 1015.9 |
| 20260901163517 | 66 | 68 | 4.0 | 6.0 | 0.00 | 0.31 | 0.31 | 89 | 1015.9 |
| 20260901163017 | 66 | 68 | 4.0 | 5.0 | 0.01 | 0.31 | 0.31 | 89 | 1015.8 |
| 20260901162517 | 66 | 68 | 4.0 | 6.0 | 0.01 | 0.31 | 0.31 | 89 | 1015.8 |
| 20260901162017 | 66 | 68 | 3.0 | 5.0 | 0.01 | 0.31 | 0.31 | 89 | 1015.9 |
| 20260901161518 | 66 | 68 | 2.0 | 4.0 | 0.01 | 0.31 | 0.31 | 89 | 1015.9 |
| 20260901161037 | 66 | 68 | 3.0 | 4.0 | 0.01 | 0.31 | 0.31 | 89 | 1015.8 |
| 20260901160517 | 66 | 90 | 3.0 | 5.0 | 0.01 | 0.31 | 0.31 | 89 | 1015.8 |
| 20260901160017 | 66 | 90 | 3.0 | 6.0 | 0.01 | 0.31 | 0.31 | 89 | 1015.7 |
| 20260901155517 | 66 | 90 | 4.0 | 6.0 | 0.01 | 0.31 | 0.31 | 89 | 1015.7 |
| 20260901155038 | 66 | 113 | 3.0 | 6.0 | 0.01 | 0.31 | 0.31 | 89 | 1015.7 |
| 20260901154517 | 66 | 113 | 3.0 | 6.0 | 0.01 | 0.31 | 0.31 | 89 | 1015.6 |
| 20260901154018 | 65 | 113 | 3.0 | 4.0 | 0.01 | 0.31 | 0.31 | 89 | 1015.7 |
| 20260901153517 | 65 | 90 | 4.0 | 7.0 | 0.01 | 0.31 | 0.31 | 89 | 1015.7 |
| 20260901153017 | 65 | 68 | 5.0 | 7.0 | 0.00 | 0.30 | 0.30 | 89 | 1015.8 |
| 20260901152517 | 65 | 68 | 5.0 | 8.0 | 0.00 | 0.30 | 0.30 | 89 | 1015.7 |
| 20260901152017 | 65 | 68 | 5.0 | 7.0 | 0.00 | 0.30 | 0.30 | 89 | 1015.7 |
| 20260901151517 | 65 | 68 | 5.0 | 7.0 | 0.01 | 0.30 | 0.30 | 89 | 1015.6 |
| 20260901151017 | 65 | 90 | 5.0 | 7.0 | 0.01 | 0.30 | 0.30 | 89 | 1015.5 |
| 20260901150537 | 65 | 90 | 5.0 | 7.0 | 0.01 | 0.30 | 0.30 | 89 | 1015.6 |
| 20260901150017 | 65 | 90 | 5.0 | 7.0 | 0.03 | 0.30 | 0.30 | 89 | 1015.5 |
| 20260901145537 | 65 | 90 | 3.0 | 6.0 | 0.03 | 0.30 | 0.30 | 89 | 1015.5 |
| 20260901145017 | 65 | 90 | 2.0 | 5.0 | 0.05 | 0.30 | 0.30 | 89 | 1015.5 |
| 20260901144537 | 65 | 90 | 2.0 | 3.0 | 0.06 | 0.30 | 0.30 | 89 | 1015.5 |
| 20260901144017 | 65 | 90 | 4.0 | 5.0 | 0.07 | 0.30 | 0.30 | 89 | 1015.5 |
| 20260901143517 | 65 | 68 | 3.0 | 6.0 | 0.09 | 0.30 | 0.30 | 89 | 1015.6 |
| 20260901143018 | 65 | 68 | 5.0 | 8.0 | 0.11 | 0.30 | 0.30 | 89 | 1015.6 |
| 20260901142517 | 65 | 45 | 4.0 | 8.0 | 0.13 | 0.30 | 0.30 | 89 | 1015.6 |
| 20260901142017 | 65 | 68 | 5.0 | 8.0 | 0.15 | 0.30 | 0.30 | 89 | 1015.7 |
| 20260901141518 | 65 | 45 | 6.0 | 10.0 | 0.17 | 0.29 | 0.29 | 89 | 1015.7 |
| 20260901141017 | 65 | 45 | 6.0 | 9.0 | 0.19 | 0.29 | 0.29 | 88 | 1015.8 |
| 20260901140517 | 65 | 45 | 6.0 | 9.0 | 0.21 | 0.29 | 0.29 | 88 | 1015.9 |
| 20260901140037 | 65 | 45 | 7.0 | 9.0 | 0.21 | 0.27 | 0.27 | 88 | 1015.8 |
| 20260901135517 | 64 | 45 | 6.0 | 9.0 | 0.24 | 0.27 | 0.27 | 88 | 1015.9 |
| 20260901135016 | 65 | 45 | 6.0 | 9.0 | 0.24 | 0.25 | 0.25 | 88 | 1016.0 |
| 20260901134517 | 65 | 45 | 6.0 | 10.0 | 0.24 | 0.24 | 0.24 | 87 | 1016.1 |
| 20260901134017 | 65 | 45 | 7.0 | 10.0 | 0.23 | 0.23 | 0.23 | 87 | 1016.1 |
| 20260901133517 | 65 | 45 | 7.0 | 10.0 | 0.21 | 0.21 | 0.21 | 87 | 1016.2 |
| 20260901133017 | 65 | 45 | 9.0 | 12.0 | 0.19 | 0.19 | 0.19 | 87 | 1016.2 |
| 20260901132517 | 65 | 0 | 9.0 | 12.0 | 0.17 | 0.17 | 0.17 | 87 | 1016.2 |
| 20260901132017 | 65 | 0 | 11.0 | 14.0 | 0.15 | 0.15 | 0.15 | 86 | 1016.2 |
| 20260901131517 | 65 | 338 | 11.0 | 14.0 | 0.12 | 0.12 | 0.12 | 86 | 1016.3 |
| 20260901131016 | 66 | 338 | 11.0 | 15.0 | 0.10 | 0.10 | 0.10 | 86 | 1016.1 |
| 20260901130516 | 66 | 338 | 13.0 | 15.0 | 0.08 | 0.08 | 0.08 | 85 | 1016.2 |
| 20260901130017 | 66 | 338 | 12.0 | 15.0 | 0.06 | 0.06 | 0.06 | 85 | 1016.2 |